This is the latest recevied weather packets stored in our database for station/object KJ5JYX. If no packets are shown the sender has not sent any weather packets the latest 10 day(s).
| Time | Temp. | Humidity | Pressure | Rain* | Wind** | Luminosity | Snow |
|---|---|---|---|---|---|---|---|
| 1777390123 | 26.67° C | 83% | 1013.5 hPa | 0 mm | - | 158 W/m² | - |
| 1777389820 | 26.67° C | 83% | 1013.7 hPa | 0 mm | - | 177 W/m² | - |
| 1777389517 | 26.67° C | 83% | 1013.7 hPa | 0 mm | - | 218 W/m² | - |
| 1777389214 | 26.67° C | 85% | 1013.6 hPa | 0 mm | - | 213 W/m² | - |
| 1777388912 | 26.11° C | 87% | 1013.7 hPa | 0 mm | - | 159 W/m² | - |
| 1777388608 | 25.56° C | 87% | 1013.5 hPa | 0 mm | - | 102 W/m² | - |
| 1777388305 | 26.11° C | 87% | 1013.6 hPa | 0 mm | - | 63 W/m² | - |
| 1777388004 | 26.11° C | 87% | 1013.8 hPa | 0 mm | - | 71 W/m² | - |
| 1777387701 | 26.11° C | 87% | 1013.8 hPa | 0 mm | - | 98 W/m² | - |
| 1777387397 | 26.11° C | 88% | 1013.7 hPa | 0 mm | - | 183 W/m² | - |
| 1777387092 | 25.56° C | 88% | 1013.6 hPa | 0 mm | - | 140 W/m² | - |
| 1777386789 | 25.56° C | 88% | 1013.6 hPa | 0 mm | - | 75 W/m² | - |
| 1777386486 | 25.56° C | 88% | 1013.7 hPa | 0 mm | - | 86 W/m² | - |
| 1777386183 | 25.56° C | 88% | 1013.7 hPa | 0 mm | - | 42 W/m² | - |
| 1777385880 | 25.56° C | 88% | 1013.6 hPa | 0 mm | - | 94 W/m² | - |
| 1777385576 | 25.56° C | 89% | 1013.6 hPa | 0 mm | - | 137 W/m² | - |
| 1777385274 | 25.56° C | 89% | 1013.7 hPa | 0 mm | - | 98 W/m² | - |
| 1777384969 | 25.56° C | 89% | 1013.7 hPa | 0 mm | - | 52 W/m² | - |
| 1777384667 | 25.56° C | 89% | 1013.7 hPa | 0 mm | - | 80 W/m² | - |
| 1777384367 | 25.56° C | 90% | 1013.5 hPa | 0 mm | - | 101 W/m² | - |
| 1777384062 | 25.56° C | 89% | 1013.5 hPa | 0 mm | - | 70 W/m² | - |
| 1777383759 | 25° C | 90% | 1013.5 hPa | 0 mm | - | 93 W/m² | - |
| 1777383456 | 25° C | 90% | 1013.5 hPa | 0 mm | - | 101 W/m² | - |
| 1777383151 | 25° C | 91% | 1013.4 hPa | 0 mm | - | 86 W/m² | - |
| 1777382849 | 25° C | 91% | 1013.3 hPa | 0 mm | - | 85 W/m² | - |
* Rain latest hour (hover to see other rain measurements)
** Current wind speed in m/s (hover to see current wind gust speed)